COSMOS 2251 DEB, 34026

Orbit data source: Space-Track

COSMOS 2251 DEB, 34026 is space debris in LEO originally from a launch on Wed, 16 Jun 1993 UTC launched from the Plesetsk Missile And Space Complex (PKMTR). The debris from Iridium 33, an American commercial communications satellite, has been tracked extensively since its accidental collision with the defunct Russian satellite Cosmos 2251 in 2009. This event, occurring at high speed in low Earth orbit (LEO), generated thousands of pieces of space debris, significantly increasing the risk of further collisions. The Iridium 33 debris cloud has impacted space traffic management and orbital debris mitigation strategies, making it a subject of ongoing study in space situational awareness.

Loading next visibility...
Identifier
34026, 1993-036HM
Orbit
LEO
Country
Flag of CISCIS
Related business
Manufacturer
Unknown
Mission
Spacecraft
Bus & Motor
Unknown
Mass
Unknown
Launch date (UTC)
1993-06-16 (33 years ago)
Launch vehicle
Unknown
Launch site
Plesetsk Missile And Space Complex (PKMTR)
Object type
Payload
Rocket body
Debris
Shape & HBR
Unknown shape, 0.1 m
Radar Cross Section
Medium (>0.1 m² and <1 m²)

Expand to show TLE details & history
Last TLE update: 5 hours ago

TLE from 5 hours ago
0 COSMOS 2251 DEB
1 34026U 93036HM  26238.54777391  .00000613  00000-0  51554-3 0  9993
2 34026  73.7650 270.1068 0344321 100.1835  48.9919 13.65768215870373
Epoch: 2026-08-26T13:08Z
TLE epoch observation values (Epoch: 2026-08-26T13:08:47.665Z)
Latitude
26.60969°
Longitude
-90.23437°
Altitude
855.757 km
Speed
7.508 km/s
True Right ascension
05h 27m 03s
True Declination
26° 28' 27"
Sunlit
Object was in daylight at epoch
Visualization orbit readout
Latitude
Unknown
Longitude
Unknown
Altitude
Unknown
Speed
Unknown
Apparent Right ascension
Unknown
Apparent Declination
Unknown
Sunlit
N/A
Visualization observer readout
Local Sidereal Time
09:32:01
Azimuth
Unknown
Elevation
Unknown
Doppler factor
Unknown
Orbital elements
Apogee altitude
1,267 km
Perigee altitude
758.048 km
Semi-major axis
7,390.661 km
Eccentricity
0.03443
Inclination
73.765°
RAAN
270.1068°
Arg. of periapsis
100.1835°
True anomaly
52.0543°
Mean anomaly
48.9919°
Eccentric anomaly
50.51449°
Mean motion
3.416 °/min
Orbital period
105.39 mins
BSTAR
0.00051554
Loading maneuver chart data...
Computing Atmospheric mass density...

Documentation

Showing up to 5 results
|